Terminal Aerodrome Forecast
Issued by NWS Lake Charles, LA

Home | Current Version | Previous Version | Text Only | Print | Product List | Glossary On
Versions: 1 2 3 4 5 6 7 8 9 10 11 12 13 14 15 16 17 18 19
000
FTUS44 KLCH 190500
TAFARA
TAF
KARA 190520Z 1906/2006 VRB04KT P6SM VCSH SCT025 BKN050
      TEMPO 1906/1908 4SM RA OVC025
     FM190800 00000KT 6SM BR SCT005
      TEMPO 1909/1913 2SM BR BKN005
     FM191400 09006KT P6SM FEW025 BKN050
     FM191800 12009KT P6SM VCSH SCT050
     FM200000 12004KT P6SM FEW050=

USA.gov is the U.S. government's official web portal to all federal, state and local government web resources and services.